Tracking 30106 objects as of 23-Jan-2025
HD Live streaming from Space Station
objects crossing your sky now

GEESAT 2-04

Track GEESAT 2-04 now!
10-day predictions


NORAD ID: 58908
Int'l Code: 2024-023D
Perigee: 588.9 km
Apogee: 599.7 km
Inclination: 50.0 °
Period: 96.4 minutes
Semi major axis: 6965 km
RCS: Unknown
Launch date: February 2, 2024
Source: People's Republic of China (PRC)
Launch site: Xichang Space Center, China (XSC)
Your satellite tracking list
Your tracking list is empty




NASA's NSSDC Master Catalog

Two Line Element Set (TLE):
1 58908U 24023D   25023.47310824  .00003522  00000-0  35429-3 0  9990
2 58908  49.9901 210.0269 0007737 206.6019 153.4527 14.93447548 53040
Source of the keplerian elements: AFSPC